Wind_Speed
4 4 4 4 4 4 4 5 4 4 5 5 4 3 2 2 3 2 2 2 2 2 2 2 2 3 3 3 3 3 3 3 2 2 2 2 2 2 3 3 3 3 4
4 5 5 5 5 5 5 5 5 5 5 5 4 4 3 3 3 3 3 3 2 2 3 3 3 3 3 3 3 3 3 3 3 3 3 3 3 3 4 4 4 4 4
4 5 5 5 5 5 5 5 5 5 5 5 5 4 4 3 4 4 4 3 3 3 3 4 3 3 4 4 3 3 3 3 3 3 3 3 3 4 4 4 5 5 5
4 5 5 6 6 6 6 6 6 6 5 5 5 5 4 4 4 4 4 4 4 4 4 4 4 4 4 4 4 4 4 4 4 4 4 4 4 4 5 5 5 6 6
5 6 6 6 6 6 6 6 6 6 6 5 5 4 4 5 5 4 5 5 5 5 4 4 5 5 5 5 5 4 5 5 5 5 5 5 5 6 6 6 6 6 7
5 5 6 6 7 6 6 6 6 6 6 5 4 4 4 5 5 5 5 5 5 5 5 5 5 6 6 6 6 6 6 5 6 6 6 6 6 7 7 7 7 7 7
5 6 6 7 7 6 6 7 7 7 6 5 5 4 4 4 5 5 5 5 6 6 6 6 6 6 7 7 7 7 7 7 7 7 8 8 8 8 8 8 8 8 8
6 6 7 7 7 6 7 7 7 6 6 5 4 4 4 5 5 6 6 6 7 7 7 7 8 8 8 8 8 8 8 8 8 8 9 9 9 9 9 9 10 10 10
8 8 8 8 8 8 8 7 6 6 6 6 4 5 5 6 6 7 7 7 7 8 8 8 9 10 10 10 9 9 9 9 9 10 10 10 10 10 10 10 10 11 11
9 9 9 9 9 8 8 7 7 7 7 6 6 6 7 7 7 8 8 9 9 9 10 10 10 11 11 11 10 10 11 11 11 11 11 11 11 12 12 12 12 12 13
10 9 10 10 9 9 8 8 8 8 8 8 8 8 9 9 9 10 10 11 11 11 10 10 10 11 11 10 11 12 12 12 13 13 12 12 13 13 14 14 14 14 15
10 10 9 9 9 9 8 8 8 8 8 8 9 9 10 11 11 11 12 12 11 11 11 11 11 12 12 12 12 13 13 14 14 14 14 14 14 14 15 15 16 16 16
10 10 9 9 9 9 9 8 8 8 9 9 10 11 11 12 12 12 12 12 12 12 12 12 13 13 13 14 14 15 15 16 16 16 16 16 16 16 16 16 17 17 18
10 11 10 10 10 10 9 8 9 10 10 10 11 11 12 12 12 12 12 12 12 13 13 14 15 15 15 15 15 16 16 17 17 17 18 18 18 18 18 18 19 19 19
11 11 11 11 10 10 9 10 10 10 10 11 11 12 12 12 12 12 12 12 13 14 15 16 16 16 15 16 16 17 18 18 18 18 19 20 19 20 20 20 21 21 21
12 12 11 11 11 10 10 10 10 11 11 12 12 13 13 13 13 13 13 13 14 14 16 17 17 17 17 17 17 18 19 20 19 20 20 20 21 21 22 23 24 24 24
12 13 12 12 12 11 11 11 11 12 12 13 13 14 14 14 14 15 15 15 16 15 15 16 17 18 18 19 19 20 21 21 21 21 21 22 22 23 24 25 26 27 27
13 13 12 13 13 13 13 13 13 13 13 14 14 14 14 14 15 16 16 16 17 17 17 17 18 19 20 21 22 22 22 22 23 23 23 24 25 25 27 28 28 28 28
13 14 14 14 14 13 13 14 14 14 14 14 14 14 15 15 15 16 16 17 17 17 17 18 19 20 22 23 23 23 24 24 24 25 26 26 26 26 27 28 29 28 28
13 13 14 14 14 14 14 14 14 14 14 14 14 14 15 15 16 16 17 17 17 18 19 19 20 22 22 23 24 24 24 25 25 25 26 27 27 27 27 27 28 29 29
13 13 14 14 14 15 15 14 14 14 14 15 16 16 16 16 17 17 18 18 18 20 21 21 22 23 24 24 25 25 25 25 26 27 28 28 28 28 28 29 30 30 30
14 14 14 14 14 14 14 15 15 15 15 16 16 17 18 18 18 18 19 19 20 21 22 23 24 24 24 25 26 26 27 27 28 29 29 30 30 30 31 31 31 32 32
14 14 14 13 14 15 15 15 15 16 16 17 18 19 19 19 19 19 20 20 22 23 23 24 24 25 25 25 26 27 28 29 30 30 30 31 32 32 32 32 33 33 33
14 14 14 14 15 15 16 17 16 16 18 19 19 20 20 20 20 21 22 23 23 24 25 25 25 26 26 26 27 28 29 29 30 30 31 32 32 33 33 34 34 34 35
15 15 16 15 16 16 17 18 18 19 20 20 21 21 21 21 21 22 23 24 24 25 26 26 26 27 27 27 28 29 30 30 31 32 32 33 33 34 34 34 35 35 36
17 17 17 16 16 18 19 19 19 20 21 21 22 22 22 22 23 24 24 25 25 26 27 27 27 27 28 29 30 31 32 32 32 33 33 33 33 34 34 35 36 37 38
Wind_Direction
16 10 4 357 351 348 353 358 357 354 354 355 350 343 327 323 329 328 313 305 304 313 307 296 295 306 309 306 305 303 316 323 307 297 287 281 265 271 270 269 273 269 262
352 355 350 342 338 341 345 348 347 345 343 345 345 341 318 304 303 304 295 291 294 303 300 297 298 299 298 294 293 293 300 313 318 307 289 275 277 278 277 275 275 276 266
336 336 339 330 329 334 332 330 330 330 329 328 327 328 322 307 303 298 292 286 282 294 300 292 298 303 300 296 296 300 294 292 302 302 294 288 284 281 279 276 271 269 268
324 323 323 327 327 326 326 328 328 323 319 319 319 322 325 312 303 306 299 291 284 286 297 294 290 295 300 300 300 291 287 282 282 284 285 289 289 288 282 280 279 274 271
324 320 316 311 312 314 318 319 317 314 318 318 317 315 308 304 299 293 295 298 291 282 288 291 290 291 294 295 295 287 280 278 277 279 282 288 288 285 283 285 284 283 275
329 322 317 313 312 306 309 313 314 307 312 309 309 307 297 294 292 288 290 292 291 285 286 285 287 286 287 288 287 283 277 277 277 279 282 287 290 288 284 283 284 284 280
321 311 313 313 313 304 305 310 309 305 305 294 293 299 294 287 286 279 278 287 289 288 285 281 283 284 286 281 278 278 278 278 279 280 285 286 287 290 290 284 282 282 281
314 310 310 313 312 305 303 308 308 304 300 293 291 289 283 284 288 279 278 284 286 284 282 278 278 281 283 282 277 279 277 276 276 280 283 284 284 286 288 286 283 280 280
304 304 304 309 309 306 301 300 303 303 297 288 283 284 285 291 292 286 284 287 289 285 284 281 278 277 279 278 276 277 277 275 276 277 280 283 282 282 283 283 280 280 280
297 298 299 301 304 303 296 290 299 300 297 290 283 282 285 289 290 287 288 286 286 287 286 282 280 280 279 275 273 272 275 275 275 275 278 280 282 282 280 281 281 282 282
294 294 295 293 295 299 292 289 294 292 290 287 283 280 282 285 286 285 284 284 284 284 283 280 279 280 279 277 273 272 273 274 276 274 274 277 280 280 278 278 278 280 282
299 295 293 290 294 297 294 290 292 289 288 288 286 284 283 284 285 283 280 281 281 281 282 281 281 281 278 276 275 276 274 274 274 274 273 274 277 279 278 277 277 278 280
304 300 295 290 290 290 291 289 290 289 287 287 286 286 287 287 288 284 279 277 276 279 282 283 283 282 279 277 276 275 276 276 275 273 271 273 276 278 277 276 276 278 279
303 301 298 294 290 285 286 286 290 290 288 286 288 288 287 289 289 284 280 277 276 278 281 283 284 283 281 280 278 276 277 278 276 274 273 273 273 275 276 275 276 277 278
301 302 298 294 291 283 282 282 284 288 290 287 286 288 288 288 289 285 282 281 279 279 281 285 286 285 282 280 281 279 278 278 279 279 277 275 276 275 275 276 277 277 278
296 295 294 293 291 286 280 280 283 288 289 288 286 286 287 287 284 283 281 281 281 279 278 280 282 282 280 279 280 282 282 282 280 279 278 278 278 278 277 277 277 278 277
292 292 288 290 291 284 280 280 283 286 288 290 289 288 287 285 283 282 281 280 281 281 281 278 278 279 280 281 281 281 281 281 279 279 278 279 278 277 277 278 279 279 279
292 293 287 286 284 281 280 281 282 285 287 288 290 291 290 289 287 285 282 281 281 281 281 280 280 282 283 283 281 279 280 279 278 277 278 280 281 280 279 279 279 279 279
291 291 286 283 281 281 280 281 282 284 286 287 290 292 291 290 289 288 287 286 284 284 285 283 282 284 284 284 283 281 281 281 279 278 279 281 283 283 281 281 281 280 280
292 288 286 285 283 280 279 280 282 285 285 285 287 291 292 292 290 289 289 288 287 287 287 286 286 285 286 286 286 283 282 283 281 280 281 283 283 284 283 282 282 282 283
294 292 290 288 287 282 279 281 284 284 286 286 286 288 290 292 291 291 290 289 289 289 289 288 288 287 285 285 285 283 283 284 283 282 283 283 284 283 282 282 282 282 283
298 295 290 289 290 288 288 286 284 285 287 287 286 287 290 292 291 292 292 291 291 292 292 291 290 288 286 285 285 285 284 284 284 284 285 285 283 284 284 282 283 283 282
295 294 289 289 289 287 289 291 285 285 287 286 286 287 290 290 289 289 291 292 293 294 295 293 291 288 287 285 284 285 285 286 286 286 286 284 283 284 285 284 283 283 283
292 292 289 288 289 288 289 290 289 290 289 288 287 287 289 290 290 290 291 293 293 295 297 295 293 292 290 287 285 285 286 288 289 289 286 284 284 284 285 285 284 283 283
293 294 291 287 288 291 291 290 289 289 289 290 289 288 289 290 291 291 291 292 293 294 295 296 295 294 291 289 288 287 289 290 290 291 288 285 284 284 285 285 286 286 285
292 293 293 293 292 292 291 289 288 289 289 290 290 290 290 290 291 292 292 292 293 293 294 295 295 294 294 293 291 289 290 291 292 292 289 287 286 286 286 287 287 288 287
Height
5900 5900 5899 5899 5898 5898 5897 5897 5896 5896 5895 5895 5895 5894 5894 5894 5894 5894 5894 5894 5894 5894 5894 5894 5894 5894 5894 5894 5894 5894 5893 5893 5893 5893 5893 5893 5893 5894 5894 5894 5894 5894 5894
5900 5900 5899 5899 5898 5897 5897 5897 5896 5896 5895 5895 5894 5894 5894 5894 5894 5894 5894 5894 5894 5894 5894 5894 5893 5893 5893 5893 5893 5893 5893 5893 5893 5893 5893 5893 5893 5893 5893 5893 5893 5894 5894
5900 5899 5899 5898 5898 5897 5897 5896 5896 5895 5895 5894 5894 5894 5893 5893 5893 5893 5893 5893 5893 5893 5893 5893 5893 5893 5893 5892 5892 5892 5892 5892 5892 5892 5892 5892 5892 5892 5892 5892 5893 5893 5893
5899 5899 5898 5898 5897 5897 5896 5896 5895 5895 5894 5894 5893 5893 5893 5893 5893 5893 5893 5892 5892 5892 5892 5892 5892 5892 5892 5892 5892 5891 5891 5891 5892 5892 5892 5891 5891 5892 5892 5892 5891 5891 5891
5899 5898 5898 5897 5897 5896 5895 5895 5895 5894 5893 5893 5892 5892 5892 5892 5892 5892 5892 5892 5891 5892 5892 5892 5892 5891 5891 5891 5891 5891 5890 5890 5890 5891 5891 5891 5891 5891 5891 5890 5890 5890 5890
5898 5897 5897 5896 5895 5895 5895 5894 5893 5893 5892 5891 5891 5891 5891 5891 5891 5891 5891 5891 5891 5891 5891 5891 5891 5890 5890 5890 5890 5890 5890 5889 5889 5889 5889 5889 5889 5889 5889 5889 5889 5889 5889
5898 5897 5896 5895 5894 5894 5894 5893 5892 5891 5890 5890 5890 5890 5890 5890 5890 5890 5890 5890 5889 5889 5889 5889 5889 5889 5889 5889 5888 5888 5888 5888 5888 5888 5888 5888 5888 5888 5887 5887 5887 5887 5887
5897 5896 5895 5894 5894 5893 5892 5892 5891 5890 5889 5889 5889 5889 5889 5890 5889 5889 5888 5888 5888 5888 5888 5888 5888 5888 5887 5887 5887 5887 5887 5887 5886 5886 5886 5886 5886 5886 5886 5885 5885 5885 5885
5895 5895 5894 5894 5893 5892 5891 5891 5890 5890 5889 5888 5888 5888 5888 5888 5888 5888 5887 5887 5886 5886 5886 5886 5886 5885 5885 5885 5885 5885 5885 5885 5885 5884 5884 5884 5884 5884 5883 5883 5883 5882 5882
5894 5894 5893 5892 5892 5891 5890 5889 5889 5888 5888 5887 5887 5887 5887 5887 5886 5886 5886 5885 5884 5884 5884 5884 5883 5883 5883 5883 5883 5882 5882 5882 5882 5882 5882 5882 5881 5881 5881 5880 5880 5880 5879
5892 5892 5891 5891 5890 5889 5889 5888 5887 5887 5887 5886 5886 5885 5885 5884 5884 5884 5883 5883 5883 5882 5882 5881 5881 5881 5880 5880 5880 5880 5880 5880 5879 5879 5879 5879 5878 5878 5878 5877 5877 5877 5876
5891 5890 5889 5889 5888 5888 5887 5887 5886 5885 5885 5885 5884 5884 5883 5882 5882 5881 5880 5880 5880 5880 5879 5879 5878 5878 5878 5877 5877 5877 5877 5876 5876 5876 5876 5875 5875 5874 5874 5874 5873 5873 5872
5889 5888 5888 5887 5886 5886 5885 5885 5884 5884 5883 5883 5882 5882 5881 5880 5879 5878 5878 5877 5877 5877 5876 5876 5875 5875 5874 5874 5874 5873 5873 5873 5872 5872 5872 5871 5871 5871 5870 5870 5869 5869 5868
5887 5886 5886 5885 5884 5883 5883 5883 5882 5882 5881 5880 5880 5879 5878 5877 5876 5875 5875 5875 5874 5874 5873 5873 5872 5872 5871 5870 5870 5869 5869 5869 5868 5868 5867 5867 5867 5866 5866 5865 5865 5864 5863
5885 5884 5883 5882 5882 5881 5881 5881 5880 5879 5879 5878 5877 5876 5876 5875 5873 5872 5872 5872 5871 5871 5870 5869 5869 5868 5867 5867 5866 5865 5865 5864 5864 5863 5863 5862 5861 5861 5860 5860 5859 5858 5858
5882 5882 5881 5880 5879 5879 5878 5878 5877 5877 5876 5875 5875 5874 5873 5872 5871 5870 5869 5868 5868 5867 5867 5866 5865 5864 5863 5862 5862 5861 5860 5860 5859 5858 5858 5857 5856 5855 5855 5854 5853 5852 5851
5880 5879 5878 5878 5877 5876 5875 5875 5875 5874 5873 5873 5872 5871 5870 5869 5868 5867 5866 5865 5864 5864 5863 5862 5861 5860 5859 5858 5857 5856 5855 5855 5854 5853 5852 5851 5850 5849 5848 5847 5846 5845 5844
5877 5876 5875 5875 5874 5873 5872 5872 5872 5871 5870 5869 5869 5868 5866 5865 5865 5863 5862 5861 5860 5860 5859 5858 5857 5855 5854 5853 5852 5851 5850 5849 5848 5847 5846 5845 5844 5842 5841 5840 5839 5838 5836
5874 5873 5872 5871 5871 5870 5869 5869 5868 5868 5867 5866 5865 5864 5863 5862 5861 5860 5859 5858 5856 5855 5854 5853 5852 5851 5849 5848 5847 5845 5844 5843 5842 5840 5839 5838 5837 5835 5833 5832 5831 5829 5828
5871 5870 5869 5868 5867 5866 5866 5866 5865 5864 5863 5862 5862 5861 5859 5858 5857 5856 5855 5853 5852 5851 5850 5848 5847 5845 5844 5842 5841 5840 5838 5837 5835 5834 5833 5831 5829 5828 5826 5824 5823 5822 5820
5868 5867 5866 5865 5864 5863 5862 5862 5861 5861 5860 5859 5858 5857 5856 5855 5853 5852 5850 5849 5847 5846 5845 5843 5841 5840 5838 5836 5835 5833 5832 5830 5829 5827 5825 5824 5822 5820 5819 5817 5815 5813 5811
5865 5864 5862 5861 5861 5860 5859 5858 5858 5857 5856 5855 5854 5853 5852 5850 5849 5847 5846 5844 5843 5841 5839 5837 5835 5833 5831 5830 5828 5826 5825 5823 5822 5820 5818 5816 5814 5812 5810 5808 5806 5804 5802
5861 5860 5859 5858 5857 5856 5856 5854 5853 5853 5852 5851 5850 5848 5847 5846 5844 5842 5841 5839 5837 5835 5833 5831 5829 5827 5825 5823 5821 5819 5817 5815 5814 5811 5809 5807 5805 5803 5801 5799 5796 5794 5792
5858 5857 5856 5855 5854 5853 5852 5851 5849 5848 5847 5846 5845 5843 5842 5840 5839 5837 5835 5833 5831 5829 5827 5824 5822 5820 5818 5816 5814 5812 5810 5808 5805 5803 5800 5798 5796 5794 5791 5789 5786 5784 5782
5854 5853 5852 5851 5850 5849 5848 5846 5845 5843 5842 5841 5839 5838 5836 5835 5833 5831 5829 5827 5825 5822 5820 5817 5815 5813 5810 5808 5806 5804 5802 5799 5797 5794 5791 5789 5786 5784 5781 5779 5776 5774 5771
5851 5849 5848 5847 5846 5844 5843 5841 5840 5839 5837 5835 5834 5832 5830 5829 5827 5825 5823 5821 5818 5816 5813 5811 5808 5806 5803 5801 5798 5796 5793 5790 5788 5785 5782 5779 5777 5774 5772 5769 5766 5763 5761